Location: Unspecified
(0.0000°N, 0.0000°E)
Time: 11:40:17
(UTC+00:00)

Vanguard 2 - Pass Details

Date: 10 October 2022
Orbit: 553 x 2933 km, 32.9° (Epoch: 29 November)

Event Time Altitude Azimuth Distance (km) Brightness Sun altitude
Rises 19:18:29 0° 298° (WNW) 6,593 13.1 -22.7°
Reaches altitude 10° 19:22:46 10° 296° (WNW) 5,692 12.7 -23.8°
Maximum altitude 19:40:33 66° 217° (SW) 2,955 10.4 -28.2°
Enters shadow 19:53:00 17° 139° (SE) 4,289 11.0 -31.3°
